MD5521 Weather Reports


time (UTC)temp
C
wind
direction
speed
KPH
gust
KPH
rain 1hr
cm
rain 24hr
cm
rain mn
cm
humidity
%
barometer
mb
20260504214532 21 173 19.3 32.2 0.00 0.03 0.00 54 1004.8
20260504213031 20 215 20.9 35.4 0.00 0.03 0.00 55 1004.9
20260504211532 21 203 14.5 25.7 0.00 0.03 0.00 52 1004.7
20260504210018 21 240 14.5 30.6 0.00 0.03 0.00 52 1004.6
20260504204523 20 241 17.7 38.6 0.00 0.03 0.00 54 1005.0
20260504203032 21 191 25.7 35.4 0.00 0.03 0.00 53 1005.6
20260504201529 20 234 19.3 33.8 0.00 0.03 0.00 54 1005.7
20260504200016 20 186 16.1 30.6 0.00 0.03 0.00 57 1005.7
20260504194532 20 216 19.3 37.0 0.00 0.03 0.00 57 1006.0
20260504193023 20 206 19.3 32.2 0.00 0.03 0.00 57 1006.0
20260504191519 20 178 22.5 41.8 0.00 0.03 0.00 57 1006.2
20260504190131 20 240 20.9 41.8 0.00 0.03 0.00 57 1006.3
20260504184509 20 192 20.9 35.4 0.00 0.03 0.00 57 1006.5
20260504183008 20 221 17.7 37.0 0.00 0.03 0.00 57 1006.5
20260504181505 21 195 17.7 37.0 0.00 0.03 0.00 56 1006.2
20260504180214 21 193 24.1 41.8 0.00 0.03 0.00 54 1005.9
20260504174551 21 211 20.9 33.8 0.00 0.03 0.00 53 1005.8
20260504173108 21 216 24.1 32.2 0.00 0.03 0.00 55 1005.9
20260504171557 20 223 14.5 35.4 0.00 0.03 0.00 56 1006.1
20260504140132 14 171 14.5 27.4 0.00 0.03 0.00 64 1007.8
20260504120108 11 169 9.7 27.4 0.00 0.03 0.00 66 1008.3
20260504081600 -17 0.0 0.0 0.00 0.03 0.00 1009.1
20260504080104 -17 0.0 0.0 0.00 0.03 0.00 1009.3
20260504050142 11 157 8.0 20.9 0.00 0.03 0.00 57 1010.9
20260504044504 11 161 11.3 19.3 0.00 0.03 0.00 58 1011.1
20260504043007 11 163 11.3 14.5 0.00 0.03 0.00 60 1011.3
20260504041504 10 163 9.7 12.9 0.00 0.03 0.00 63 1011.5
20260504040109 10 149 9.7 14.5 0.00 0.03 0.00 67 1011.6
20260504034554 10 147 8.0 11.3 0.00 0.03 0.03 65 1011.8
20260504033058 10 131 6.4 11.3 0.00 0.03 0.03 65 1012.0
20260504031630 10 123 6.4 11.3 0.00 0.03 0.03 66 1012.1
20260504030106 10 135 4.8 11.3 0.00 0.03 0.03 68 1012.3
20260504024553 10 131 6.4 12.9 0.00 0.03 0.03 68 1012.4
20260504023054 10 147 6.4 12.9 0.00 0.03 0.03 69 1012.6
20260504021610 10 150 6.4 12.9 0.00 0.03 0.03 69 1012.5
20260504020105 9 154 4.8 12.9 0.00 0.03 0.03 70 1012.5
20260504014539 9 149 4.8 11.3 0.00 0.03 0.03 72 1012.5
20260504013041 8 145 1.6 6.4 0.00 0.03 0.03 74 1012.5
20260504011549 8 149 1.6 6.4 0.00 0.03 0.03 74 1012.6
20260504010046 8 138 1.6 8.0 0.00 0.03 0.03 75 1012.6
20260504004531 8 144 0.0 6.4 0.00 0.03 0.03 75 1012.7
20260504003031 8 143 0.0 4.8 0.00 0.03 0.03 74 1012.4
20260504001542 8 146 0.0 6.4 0.00 0.03 0.03 74 1012.5
20260504000018 8 121 1.6 8.0 0.00 0.03 0.03 75 1012.6
20260503234525 8 134 0.0 4.8 0.00 0.03 0.03 77 1012.6
20260503233024 8 138 1.6 8.0 0.00 0.03 0.03 77 1012.4
20260503231521 8 125 1.6 6.4 0.00 0.03 0.03 75 1012.8
20260503230128 8 131 1.6 6.4 0.00 0.03 0.03 76 1012.9
20260503224504 8 113 1.6 4.8 0.03 0.03 0.03 77 1013.4
20260503223012 8 120 0.0 3.2 0.03 0.03 0.03 77 1013.8
20260503221505 8 61 0.0 3.2 0.03 0.03 0.03 77 1014.4
20260503220107 8 60 3.2 4.8 0.03 0.03 0.03 75 1014.5